STARLINK-31961, 59894

Orbit data source: Space-Track

STARLINK-31961, 59894 is a payload satellite owned by SpaceX/Seattle (US) in LEO that was launched on Tue, 28 May 2024 UTC via an FALCON 9 launch vehicle from the Air Force Eastern Test Range (AFETR). Payload-class satellites include a variety of spacecraft equipped with specific instruments for various scientific and technological missions. These include communications satellites like Starlink; space stations such as the ISS; scientific satellites like the Hubble; Earth observation satellites from companies like Planet Labs, Umbra, and HawkEye 360; GPS; miniature CubeSats for education and research; and military/defense satellites.

Loading next visibility...
Identifier
59894, 2024-100K
Orbit
LEO
Country
Flag of USUS
Related business
Manufacturer
SpaceX/Seattle
Mission
Operational Commercial Communications
Bus & Motor
STARLINK V2M, Unknown motor
Mass
730 kg wet, ~700 kg dry
Launch date (UTC)
2024-05-28 (1 year ago)
Launch vehicle
FALCON 9
Launch site
Air Force Eastern Test Range (AFETR)
Object type
Payload
Rocket body
Debris
Shape & HBR
Box + 2 Pan, 17.7 m
Radar Cross Section
33.884 m², Large (>1 m²)

Expand to show TLE details & history
Last TLE update: 23 hours ago

TLE from 23 hours ago
0 STARLINK-31961
1 59894U 24100K   25310.73638810 -.00000390  00000-0 -46493-5 0  9994
2 59894  43.0041  92.7739 0001767 278.0569  82.0082 15.27584949 82435
Epoch: 2025-11-06T17:40Z
TLE epoch observation values (Epoch: 2025-11-06T17:40:23.931Z)
Latitude
-0.00005°
Longitude
141.48371°
Altitude
482.642 km
Speed
7.626 km/s
True Right ascension
06h 11m 05s
True Declination
0° 00' 00"
Sunlit
Object was in full shadow at epoch
Visualization orbit readout
Latitude
Unknown
Longitude
Unknown
Altitude
Unknown
Speed
Unknown
Apparent Right ascension
Unknown
Apparent Declination
Unknown
Sunlit
N/A
Visualization observer readout
Local Sidereal Time
12:33:24
Azimuth
Unknown
Elevation
Unknown
Doppler factor
Unknown
Orbital elements
Apogee altitude
486.191 km
Perigee altitude
483.766 km
Semi-major axis
6,863.116 km
Eccentricity
0.00018
Inclination
43.0041°
RAAN
92.7739°
Arg. of periapsis
278.0569°
True anomaly
82.02825°
Mean anomaly
82.0082°
Eccentric anomaly
82.01823°
Mean motion
3.81734 °/min
Orbital period
94.31 mins
BSTAR
-0.0000046493
Loading maneuver chart data...
Computing Atmospheric mass density...
Loading historical data...
Loading historical data...
Loading historical data...
Loading historical data...
Loading historical data...
Loading historical data...
Loading historical data...

Documentation

Showing up to 5 results
|